BREEZE-M DEB, 38650

Orbit data source: Space-Track

BREEZE-M DEB, 38650 is space debris in HEO originally from a launch on Fri, 14 Mar 2008 UTC launched from the Tyuratam Missile And Space Complex (TTMTR). Debris objects in space refer to the collection of defunct objects orbiting the Earth. Examples of debris include non-operational satellites, rocket bodies, and fragments generated from explosions, collisions, or faulty payload assembly.

Loading next visibility...
Identifier
38650, 2008-011CZ
Orbit
HEO
Country
Flag of CISCIS
Related business
Manufacturer
Unknown
Mission
Spacecraft
Bus & Motor
Unknown
Mass
Unknown
Launch date (UTC)
2008-03-14 (18 years ago)
Launch vehicle
Unknown
Launch site
Tyuratam Missile And Space Complex (TTMTR)
Object type
Payload
Rocket body
Debris
Shape & HBR
Unknown shape, 0.4 m
Radar Cross Section
Medium (>0.1 m² and <1 m²)

Expand to show TLE details & history
Last TLE update: 2 days ago

TLE from 2 days ago
0 BREEZE-M DEB
1 38650U 08011CZ  26171.33188200  .00001091  00000-0  48374-1 0  9992
2 38650  49.2780  28.2171 6370076 207.0033 353.8045  3.06740816175016
Epoch: 2026-06-20T07:57Z
TLE epoch observation values (Epoch: 2026-06-20T07:57:54.604Z)
Latitude
6.10761°
Longitude
174.94225°
Altitude
1,438.83 km
Speed
9.059 km/s
True Right ascension
13h 31m 52s
True Declination
6° 04' 28"
Sunlit
Object was in daylight at epoch
Visualization orbit readout
Latitude
Unknown
Longitude
Unknown
Altitude
Unknown
Speed
Unknown
Apparent Right ascension
Unknown
Apparent Declination
Unknown
Sunlit
N/A
Visualization observer readout
Local Sidereal Time
06:32:18
Azimuth
Unknown
Elevation
Unknown
Doppler factor
Unknown
Orbital elements
Apogee altitude
26,377.511 km
Perigee altitude
885.147 km
Semi-major axis
20,009.466 km
Eccentricity
0.63701
Inclination
49.278°
RAAN
28.2171°
Arg. of periapsis
207.0033°
True anomaly
325.45948°
Mean anomaly
353.8045°
Eccentric anomaly
343.34223°
Mean motion
0.76681 °/min
Orbital period
469.48 mins
BSTAR
0.048374
Loading maneuver chart data...
Computing Atmospheric mass density...
Loading historical data...
Loading historical data...
Loading historical data...
Loading historical data...
Loading historical data...
Loading historical data...
Loading historical data...

Documentation

Showing up to 5 results
|